Tracking 25612 objects as of 19-May-2022
HD Live streaming from Space Station
objects crossing your sky now

INTELSAT 904

Track INTELSAT 904 now!
INTELSAT 904 is classified as:


NORAD ID: 27380
Int'l Code: 2002-007A
Perigee: 35,779.9 km
Apogee: 35,808.2 km
Inclination: 3.2 °
Period: 1,436.1 minutes
Semi major axis: 42165 km
RCS: 11.3214 m2 (large)
Launch date: February 23, 2002
Source: International Telecommunications Satellite Organization (ITSO)
Launch site: FRENCH GUIANA (FRGUI)

76 C-band, 22 Ku-band, broadcasting, business services, direct-to-home TV broadcasting, telecommunications, VSAT networks; Indian Ocean region.
aabbcc
Your satellite tracking list
Your tracking list is empty




NASA's NSSDC Master Catalog

Two Line Element Set (TLE):
1 27380U 02007A   22138.43435427 -.00000212  00000-0  00000-0 0  9993
2 27380   3.1646  86.2327 0003358 340.6300 296.1011  1.00270687 36814
Source of the keplerian elements: AFSPC